星链-32248 (STARLINK-32248)

导读

STARLINK-32248是美国太空探索技术公司(SpaceX)星链(Starlink)互联网星座项目的低轨通信卫星,于2024年9月20日发射入轨,归属美国。星链项目旨在搭建全球卫星互联网通信网络,为全球尤其是偏远区域提供低延迟、高速率的互联网接入服务,该卫星是SpaceX大规模星座部署的组成部分,进一步扩充了星链在轨卫星规模,强化全球网络覆盖能力。

Basic Information
目录编号:
61219
目录名称:
STARLINK-32248
国际标识:
2024-171V
轨道中心:
EARTH
卫星名称:
星链-32248
卫星全名:
星链-32248 (STARLINK-32248)
卫星状态:
在轨 (已飞行632 天)
发射日期:
2024-09-20 UTC
国别 :
美国 (US)
星等 :
--
Orbit Information
数据来源 国际轨道数据 AOE轨道数据
星历时间 2026-06-14T06:17:20+0800
13小时前
查看轨道信息
2026-06-12T04:00:00+0800
2天前
查看轨道信息
半长轴 6848.875km 6848.853km
偏心率 0.0001237 0.0000876
轨道倾角 53.161° 53.158°
近地点辐角 84.759° 81.032°
升交点赤经 235.383° 245.138°
平近点角 275.355° 238.520°
近地点 469.89km 470.116km
远地点 471.586km 471.316km
周期 94.013分钟 94.013分钟
每日圈数 15.317009 15.317083
Detailed Information
固有亮度:
5
最大亮度:
2.5
卫星平台:
Starlink V1.0
覆盖范围:
全球
运营商:
太空探索技术公司
运营商所在国:
美国
制造商(研发单位):
太空探索技术公司
制造商所在国:
美国
使用方式:
暂无
Satellite Introduction
Starlink 计划是 SpaceX 推出的全球卫星互联网项目,通过发射低轨道卫星,为全球尤其是偏远地区提供高速、低延迟的互联网服务。自 2019 年起,Starlink 已部署数千颗卫星,旨在缩小全球数字鸿沟,推动互联网普及。该项目还为军事、航空等行业提供通信支持,带来广泛经济效益。
2D Orbit Map
3D Orbit Map
Orbit Altitude Analysis Chart
Orbit Inclination Analysis Chart
Orbit Comprehensive Analysis Chart
View Comprehensive Chart